Wetterdaten: aktuell Mittwoch, 26.07.2017 12:15
Datum Zeit Temp. A. Luft Gew. Boden Gew. Boden A. Feuchte A. Luftdruck Regen Wind Richtung Richtung Sonnenschein ET UV Solar Taupunkt Windchill Windben Empfang
26.07.2017 12:15 14,4 C 15,0 C 0,0 C 0,0 C 95 % 1009,6 hPa 0,8 l/m 11,5 km/h (2 Bft) W-SW 253 0 min 0,077 mm 1,1 UV-I 119 W/m 13,6 C 11,8 C 20,9 km/h (4 Bft) 100,00 %
26.07.2017 11:15 14,2 C 14,4 C 0,0 C 0,0 C 95 % 1009,3 hPa 0,4 l/m 12,5 km/h (3 Bft) SW 225 0 min 0,050 mm 1,0 UV-I 122 W/m 13,4 C 11,1 C 27,4 km/h (4 Bft) 97,44 %
26.07.2017 10:15 13,8 C 13,3 C 0,0 C 0,0 C 95 % 1009,0 hPa 0,4 l/m 12,1 km/h (2 Bft) W 259 0 min 0,051 mm 0,8 UV-I 112 W/m 13,0 C 10,8 C 24,1 km/h (4 Bft) 97,50 %
26.07.2017 09:15 13,3 C 12,8 C 0,0 C 0,0 C 96 % 1008,6 hPa 0,6 l/m 11,4 km/h (2 Bft) W 259 0 min 0,026 mm 0,0 UV-I 51 W/m 12,7 C 10,6 C 20,9 km/h (4 Bft) 98,29 %
26.07.2017 08:15 12,9 C 12,2 C 0,0 C 0,0 C 96 % 1008,0 hPa 0,8 l/m 10,0 km/h (2 Bft) W-SW 237 0 min 0,025 mm 0,0 UV-I 35 W/m 12,3 C 10,8 C 24,1 km/h (4 Bft) 96,58 %
26.07.2017 07:15 13,3 C 12,2 C 0,0 C 0,0 C 96 % 1007,6 hPa 1,0 l/m 9,8 km/h (2 Bft) W 269 0 min 0,000 mm 0,0 UV-I 12 W/m 12,7 C 11,3 C 19,3 km/h (3 Bft) 97,62 %
26.07.2017 06:15 13,1 C 12,2 C 0,0 C 0,0 C 96 % 1007,0 hPa 1,2 l/m 9,1 km/h (2 Bft) W 263 0 min 0,000 mm 0,0 UV-I 1 W/m 12,5 C 11,5 C 16,1 km/h (3 Bft) 100,00 %
26.07.2017 05:15 12,8 C 12,2 C 0,0 C 0,0 C 96 % 1006,4 hPa 0,8 l/m 12,1 km/h (2 Bft) S-SW 212 0 min 0,000 mm 0,0 UV-I 0 W/m 12,2 C 9,7 C 20,9 km/h (4 Bft) 100,00 %
26.07.2017 04:15 12,7 C 12,2 C 0,0 C 0,0 C 96 % 1006,1 hPa 0,8 l/m 14,3 km/h (3 Bft) SW 215 0 min 0,000 mm 0,0 UV-I 0 W/m 12,1 C 8,7 C 24,1 km/h (4 Bft) 100,00 %
26.07.2017 03:15 12,8 C 12,2 C 0,0 C 0,0 C 95 % 1006,1 hPa 3,6 l/m 21,3 km/h (4 Bft) SW 227 0 min 0,000 mm 0,0 UV-I 0 W/m 12,0 C 6,5 C 33,8 km/h (5 Bft) 99,12 %
26.07.2017 02:15 12,8 C 12,2 C 0,0 C 0,0 C 95 % 1006,7 hPa 2,4 l/m 15,4 km/h (3 Bft) W-SW 238 0 min 0,000 mm 0,0 UV-I 0 W/m 12,0 C 8,4 C 27,4 km/h (4 Bft) 97,44 %
26.07.2017 01:15 12,9 C 12,2 C 0,0 C 0,0 C 95 % 1007,5 hPa 2,0 l/m 14,1 km/h (3 Bft) SW 227 0 min 0,000 mm 0,0 UV-I 0 W/m 12,1 C 9,0 C 22,5 km/h (4 Bft) 98,90 %
26.07.2017 00:15 12,9 C 12,8 C 0,0 C 0,0 C 95 % 1008,3 hPa 0,6 l/m 11,9 km/h (2 Bft) S-SW 199 0 min 0,000 mm 0,0 UV-I 0 W/m 12,1 C 9,9 C 22,5 km/h (4 Bft) 98,29 %
25.07.2017 23:15 13,1 C 12,8 C 0,0 C 0,0 C 95 % 1008,8 hPa 0,2 l/m 12,3 km/h (3 Bft) SW 236 0 min 0,000 mm 0,0 UV-I 0 W/m 12,3 C 10,0 C 24,1 km/h (4 Bft) 97,44 %
25.07.2017 22:15 13,1 C 12,8 C 0,0 C 0,0 C 94 % 1009,4 hPa 0,4 l/m 10,0 km/h (2 Bft) SW 229 0 min 0,000 mm 0,0 UV-I 0 W/m 12,2 C 11,0 C 17,7 km/h (3 Bft) 97,44 %
25.07.2017 21:15 13,1 C 13,3 C 0,0 C 0,0 C 94 % 1009,7 hPa 0,4 l/m 9,8 km/h (2 Bft) W-SW 240 0 min 0,001 mm 0,0 UV-I 0 W/m 12,2 C 11,1 C 14,5 km/h (3 Bft) 99,08 %
25.07.2017 20:15 13,3 C 14,4 C 0,0 C 0,0 C 92 % 1009,9 hPa 2,2 l/m 8,6 km/h (2 Bft) SW 232 0 min 0,025 mm 0,0 UV-I 12 W/m 12,0 C 12,0 C 17,7 km/h (3 Bft) 100,00 %
25.07.2017 19:15 14,0 C 15,6 C 0,0 C 0,0 C 92 % 1010,1 hPa 1,2 l/m 6,2 km/h (2 Bft) W 260 0 min 0,051 mm 0,0 UV-I 42 W/m 12,7 C 14,0 C 12,9 km/h (3 Bft) 97,44 %
25.07.2017 18:15 14,5 C 16,7 C 0,0 C 0,0 C 88 % 1010,2 hPa 0,0 l/m 11,9 km/h (2 Bft) W 263 0 min 0,076 mm 0,2 UV-I 85 W/m 12,5 C 11,7 C 22,5 km/h (4 Bft) 97,67 %
25.07.2017 17:15 14,3 C 17,2 C 0,0 C 0,0 C 89 % 1010,0 hPa 0,0 l/m 12,3 km/h (3 Bft) W-SW 243 35 min 0,102 mm 1,0 UV-I 164 W/m 12,5 C 11,3 C 22,5 km/h (4 Bft) 100,00 %
25.07.2017 16:15 14,2 C 17,8 C 0,0 C 0,0 C 90 % 1010,3 hPa 0,0 l/m 9,1 km/h (2 Bft) W 275 40 min 0,127 mm 1,0 UV-I 136 W/m 12,6 C 12,7 C 22,5 km/h (4 Bft) 97,44 %
25.07.2017 15:15 14,1 C 17,2 C 0,0 C 0,0 C 91 % 1010,3 hPa 1,0 l/m 12,3 km/h (3 Bft) W-SW 250 20 min 0,101 mm 1,5 UV-I 180 W/m 12,7 C 11,1 C 22,5 km/h (4 Bft) 99,15 %
25.07.2017 14:15 15,4 C 19,4 C 0,0 C 0,0 C 87 % 1010,0 hPa 0,4 l/m 11,0 km/h (2 Bft) NW 306 50 min 0,001 mm 1,0 UV-I 115 W/m 13,2 C 13,1 C 19,3 km/h (3 Bft) 100,00 %
25.07.2017 13:15 14,9 C 20,6 C 0,0 C 0,0 C 86 % 1010,1 hPa 0,0 l/m 16,5 km/h (3 Bft) W-SW 246 15 min 0,203 mm 1,5 UV-I 174 W/m 12,6 C 10,6 C 27,4 km/h (4 Bft) 99,15 %
25.07.2017 13:00 15,4 C 20,6 C 0,0 C 0,0 C 86 % 1009,9 hPa 0,0 l/m 13,2 km/h (3 Bft) W-SW 243 0 min 0,000 mm 2,3 UV-I 275 W/m 13,1 C 12,3 C 25,7 km/h (4 Bft) 100,00 %
_ Min-Zeit 02:50 00:55 13:00 13:00 13:00 03:05 - 19:10 - - - - - - 20:35 03:15 19:10 19:45
Minimum _ 12,7 C 12,2 C 0,0 C 0,0 C 86 % 1006,1 hPa - 4,9 km/h (1 Bft) - - - - - - 11,7 C 6,5 C 9,7 km/h (2 Bft) 94,92 %
_ Max-Zeit 13:55 13:00 13:00 13:00 06:00 14:50 18:30 03:15 - - 13:00 13:05 13:50 13:50 13:55 19:00 03:05 13:00
Maximum _ 15,7 C 20,6 C 0,0 C 0,0 C 100 % 1010,4 hPa 0,6 l/m 21,3 km/h
SW (4 Bft)
- - 5 min 0,203 mm 4,5 UV-I 538 W/m 14,1 C 14,1 C 38,6 km/h
W-SW (5 Bft)
100,00 %
Durchschnitt _ 13,7 C 14,7 C 0,0 C 0,0 C 93 % 1008,8 hPa #21,2 l/m 11,9 km/h (2 Bft) W-SW - #0 min. #0,229 mm 0,9 UV-I 64 W/m 12,5 C 10,9 C 22,6 km/h (4 Bft) 98,50 %